Location: Peebles
(55.6412°N, 3.1714°W)
Time: 14:10:19
(UTC+01:00)

Cosmos 2297 Rocket - Pass Details

Date: 26 September 2021
Orbit: 841 x 842 km, 71.0° (Epoch: 17 October)

Event Time Altitude Azimuth Distance (km) Brightness Sun altitude
Rises 19:46:55 0° 318° (NW) 3,409 6.2 -7.3°
Reaches altitude 10° 19:49:51 10° 332° (NNW) 2,472 5.2 -7.8°
Maximum altitude 19:54:25 24° 26° (NNE) 1,674 3.6 -8.4°
Drops below altitude 10° 19:58:59 10° 80° (E) 2,466 4.0 -9.0°
Enters shadow 19:59:07 10° 81° (E) 2,506 4.1 -9.0°
